STARLINK-3881 (52472 NORAD) Tracking and Keplerian Element Data

This shows tracking and keplerian element data for the satellite.

Feedback or suggestion? Click here.




ElementValue
Catalog52472
NameSTARLINK-3881
Epoch Orbit130
Epoch Day167.08334491
Epoch Year2022
RAAN64.9933
Inclination53.2165
Eccentricity0.0001851
Argument of Perigee30.6941
Mean Anonmoly111.2924
Mean Motion15.73238457
Decay Rate0.0003716
L11 52472U 22049X 22167.08334491 .00037160 00000+0 26757-3 0 9993
L22 52472 53.2165 64.9933 0001851 30.6941 111.2924 15.73238457 1305

Live tracking and technical data element details for STARLINK-3881 (NORAD 52472). STARLINK-3881 can be tracked NOW for your location showing map with azimuth and elevation plus other details from your city location.

Track the satellite on the map from your city or location and see movement details for azimuth, elevation, latitude, longitude, range, height, and movement on the map or in text.







IsCatalogInMostPopularTable: catalog: 52472, numindb: 1
Update: records affected: 1



GetName: 52472 STARLINK-3881

Hit Count: updated at: Mon, 27 Jun 2022 05:01:47 GMT